sat.trackr.live / text

‹ back to catalog

STARLINK-30765

NORAD 58119 · 2023-162B

PAYLOAD ACTIVE UNKNOWN

§ Identity

Operator
Country
US
Launch date
2023-10-22
Launch site
AFETR
Launch vehicle
Mass (kg)
RCS (m²)

Purposes: comms

External: N2YO · Heavens-Above · Gunter

§ Orbital elements

Epoch: 2026-09-20T23:07:58.736064Z

Period
94.27 min
Inclination
43.0077°
Eccentricity
0.0002353
Mean motion
15.27573928 rev/d
Perigee alt
481.5 km
Apogee alt
484.7 km
Semi-major
6,861.2 km
B*
-3.8063e-6
RAAN
109.5193°
Arg perigee
263.8015°
Mean anomaly
96.2569°
Rev number
16,217

§ Raw data

STARLINK-307651 58119U 23162B   26263.96387426 -.00000367  00000+0 -38063-5 0  99942 58119  43.0077 109.5193 0002353 263.8015  96.2569 15.27573928162176

JSON: /api/v1/satellites/58119 · /tle

For live sub-satellite position, see the globe view (requires WebGL).

§ Visibility from observer

Set your observer location to see the next 7 days of passes ≥ 10°. The values pass through the URL so the page stays shareable.

No JS? Fill the form by hand. The geolocation button needs JavaScript.